Regional Weather Roundup
Issued by NWS Wakefield, VA

Home | Current Version | Previous Version | Graphics & Text | Print | Product List | Glossary On
Versions: 1 2 3 4 5 6 7 8 9 10 11 12 13 14 15 16 17 18 19 20 21 22 23 24 25 26 27 28 29 30 31 32 33 34 35 36 37 38 39 40 41 42 43 44 45 46 47 48 49 50
695
ASUS41 KAKQ 171215
RWRAKQ

REGIONAL WEATHER ROUNDUP
NATIONAL WEATHER SERVICE WAKEFIELD VA
700 AM EST SUN DEC 17 2017

Note: "fair" indicates few or no clouds below 12,000 feet with no
significant weather and/or obstructions to visibility. * = Denotes
station may not report precipitation (e.g., rain,snow,etc.),
thunder or fog.

VAZ042-051-052>054-056-171300-
NORTHERN VIRGINIA

CITY           SKY/WX    TMP DP  RH WIND       PRES   REMARKS
WASH NATIONAL  CLOUDY    33  27  78 CALM      30.26R
DULLES         CLOUDY    27  24  89 CALM      30.24S
FORT BELVOIR   CLOUDY    26  23  88 CALM      30.25S
QUANTICO       PTCLDY    28  26  92 NW6       30.27S
FREDERICKSBRG* PTCLDY    25  24  93 CALM      30.25S
STAFFORD*      CLOUDY    26  26 100 CALM      30.29S
WARRENTON      PTCLDY    25  21  83 CALM      30.23S
CULPEPER*      CLOUDY    24  21  87 CALM      30.25S
MANASSAS*      MOCLDY    23  21  92 CALM      30.25F
LEESBURG*      MOCLDY    30  28  93 CALM      30.25F
WINCHESTER     CLOUDY    34  23  64 W3        30.22S
FRONT ROYAL*   CLOUDY    34  27  75 S5        30.21S
LURAY*         CLOUDY    28  27  93 CALM      30.24R
$$

VAZ048-049-060>072-079>083-171300-
CENTRAL AND SOUTH CENTRAL VIRGINIA

CITY           SKY/WX    TMP DP  RH WIND       PRES   REMARKS
RICHMOND       PTCLDY    29  23  78 SE3       30.26R
CHESTERFIELD*  NOT AVBL
PETERSBURG*    CLOUDY    25  21  86 CALM      30.29R
HANOVER        CLOUDY    26  24  92 CALM      30.27R
TAPPAHANNOCK*  CLOUDY    26  24  93 CALM      30.27R
QUINTON*       FAIR      26  25  96 CALM      30.27R
CHARLOTTSVILLE MOCLDY    31  24  75 W5        30.24R
GORDONSVILLE*  MOSUNNY   25  24  93 CALM      30.23S
ORANGE*        PTCLDY    27  23  86 CALM      30.24S
LOUISA*        CLOUDY    27  24  89 CALM      30.28S
BUMPASS*       FAIR      27  25  91 SW8       30.23F
FARMVILLE*     CLOUDY    27  27 100 CALM      30.24S
CREWE*         FAIR      27  27 100 CALM      30.24R
FORT PICKETT*  NOT AVBL
CHASE CITY*    FAIR      28  28  99 CALM      30.26R
CLARKSVILLE*   FAIR      28  27  93 CALM      30.26S
SOUTH HILL*    CLEAR     29  27  91 S3        30.32R
LAWRENCEVILLE* FAIR      26  22  87 CALM      30.26R
EMPORIA*       CLOUDY    23  21  93 CALM      30.30R
$$

VAZ088>098-171300-
SOUTHEAST VIRGINIA

CITY           SKY/WX    TMP DP  RH WIND       PRES   REMARKS
NORFOLK        CLOUDY    28  24  85 SW7       30.29R
VIRGINIA BEACH CLOUDY    28  22  78 CALM      30.29R
NORFOLK NAVAL  PTCLDY    32  26  78 CALM      30.30R
WEST POINT*    CLOUDY   N/A N/A N/A CALM      30.30R
SALUDA*        FAIR      28  26  91 CALM      30.27R
NEWPORT NEWS   PTCLDY    27  24  89 CALM      30.29R
LANGLEY AFB    CLEAR     30  27  88 CALM      30.29R
FORT EUSTIS    CLOUDY    29  25  85 CALM      30.26R
WILLIAMSBURG*  PTCLDY    28  27  93 CALM      30.30R
HR EXEC AP*    FAIR      22  20  92 CALM      30.31R
FRANKLIN*      CLOUDY    25  22  90 CALM      30.30R
US460-WAKEFLD  PTCLDY    25  24  96 CALM      30.28R
$$

VAZ020-022-025-037-045-171300-
WEST CENTRAL AND SOUTHWEST VIRGINIA

CITY           SKY/WX    TMP DP  RH WIND       PRES   REMARKS
STAUNTON*      CLOUDY    26  22  84 CALM      30.26R
WAYNESBORO*    MOSUNNY   32  23  71 CALM      30.24R
HOT SPRINGS VA CLOUDY    34  22  61 W10       30.19R
LYNCHBURG      CLOUDY    28  24  85 CALM      30.26R
DANVILLE       PTCLDY    28  24  85 CALM      30.27S
SOUTH BOSTON*  FAIR      29  23  77 CALM      30.26F
MARTINSVILLE   CLOUDY    24  21  87 CALM      30.27S
ROANOKE        PTCLDY    36  25  64 N3        30.28R
BLACKSBURG     PTCLDY    30  26  84 CALM      30.27F
DUBLIN*        PTCLDY    32  26  81 CALM      30.25F
MARION*        PTCLDY    33  25  73 CALM      30.24F
HILLSVILLE*    CLOUDY    37  19  48 CALM      30.22R
RICHLANDS*     FAIR      34  22  62 CALM      30.22F
WISE*          CLOUDY    34  28  80 SE3       30.20F
ABINGDON*      CLOUDY    32  28  86 E6        30.23F
$$

MDZ021>025-VAZ099-100-171300-
SOUTHERN MARYLAND AND THE DELMARVA PENINSULA

CITY           SKY/WX    TMP DP  RH WIND       PRES   REMARKS
PATUXENT RIVER MOCLDY    27  25  92 CALM      30.26R
BAY BRIDGE APT PTCLDY    30  27  86 CALM      30.26R
LEONARDTOWN    PTCLDY    30  27  86 CALM      30.27R
DOVER          PTCLDY    28  28 100 S3        30.26R
GEORGETOWN     PTCLDY    28  24  85 CALM      30.28R
EASTON         CLEAR     28  27  93 CALM      30.29R
CAMBRIDGE        N/A     27  25  93 CALM      30.27R
SALISBURY      PTCLDY    27  25  92 CALM      30.27R
OCEAN CITY     CLEAR     33  29  85 CALM      30.28R
WALLOPS ISLAND PTCLDY    31  29  92 W3        30.28R
ACCOMACK*      PTCLDY    29  28  96 SW3       30.28R
$$

NCZ012>017-030>032-171300-
NORTH CENTRAL AND EASTERN NORTH CAROLINA

CITY           SKY/WX    TMP DP  RH WIND       PRES   REMARKS
ROANOKE RAPIDS FAIR      28  27  93 CALM      30.29R
RALEIGH        CLOUDY    29  25  85 CALM      30.28R
ELIZABETH CITY PTCLDY    31  30  96 SW3       30.31R
AHOSKIE*       PTCLDY    27  26  94 CALM      30.30R
EDENTON*       NOT AVBL
CURRITUCK*     PTCLDY    32  30  92 CALM      30.30R
KILL DEVIL HLS PTCLDY    36  31  82 CALM      30.29R
MANTEO         PTCLDY    39  29  69 CALM      30.31R
CAPE HATTERAS  CLEAR     36  36 100 W5        30.31R
TARBORO*       NOT AVBL
GOLDSBORO      CLOUDY    28  25  86 CALM      30.29R
WASHINGTON     CLOUDY    29  27  90 CALM      30.31R
GREENVILLE     PTCLDY    30  28  93 CALM      30.31R
NEW BERN       CLOUDY    27  27 100 S3        30.33R
WILMINGTON     PTCLDY    31  29  92 CALM      30.33R
$$

VAZ048-171300-
ELSEWHERE

CITY           SKY/WX    TMP DP  RH WIND       PRES   REMARKS
HARRISBURG PA  MOCLDY    26  24  92 CALM      30.23R
BALTIMORE      MOCLDY    29  25  85 CALM      30.25R
ANNAPOLIS      MOCLDY    32  26  78 CALM      30.25R
ANDREWS AFB    CLOUDY    28  23  81 CALM      30.23R
PHILADELPHIA   CLOUDY    32  25  75 E7        30.28R
HENDERSON NC   CLOUDY    27  21  80 SW3       30.26S
GREENSBORO     CLOUDY    28  23  81 CALM      30.24R
ROCKY MOUNT    CLOUDY    27  27 100 S3        30.30R
$$

VAZ100-171300-
MARINE

STATION/POSITION TIME  TEMP    WIND        PRES    WAVE   SWELL
                       AIR SEA DIR/SP/G            HT/PER HT/PER
                 (UTC) (F)     (DEG/KT/KT) (MB)    (FT/S) (FT/S)
BRANDYWINE LGT   1142   41     350/  5/  5 1024.9R
CAPE MAY NJ      1148   36 40  260/  3/  3 1024.3R
LEWES DE         1148   38 41  330/  2/  3 1024.6R
15NM E FENWICK I 1150   46 51  340/  6/  8 1025.0R   2/ 5   2/ 5
OCEAN-CITY-INLET 1148   38 44  290/  3/  3 1025.3R
WACHAPREAGUE VA  1148   33 38  270/  1/  2 1025.2R
THOMAS POINT MD  1200   36 43   CALM  /  2   N/A
GOOSES REEF MD   1200   40 44  270/  4/  6 1025.2    0
COVE POINT MD    1148   38     300/  2/  3 1025.4R
SOLOMONS ISLAND  1148   34 45  340/  2/  2 1024.4R
BISHOPS HEAD MD  1148   38 36   CALM  /  2 1025.1R
PINEY POINT MD   1148          330/  1/  1   N/A
POTOMAC MD       1200   40 44  240/  4/  4 1024.4    0
CAMBRIDGE MD     1142   31 39              1025.5R
LEWISETTA VA     1148   33 38  220/  2/  3 1024.9R
RAPPAHANNOCK LGT 1148          260/  4/  4 1025.9R
STINGRAY PT      1200   40 44   CALM  /  2 1025.3    0
YORK RVR RNG VA  1148   40     210/  6/  6 1026.0R
YORKTOWN VA      1148   36 45  190/  3/  4 1025.4R
JAMESTOWN VA     1200      42  200/  2/  4   N/A     0
DOMINION TERM VA 1148   37     230/  4/  6 1025.9R
KIPTOPEKE VA     1148      43  290/  3/  4   N/A
CAPE HENRY VA    1148   36     210/  6/  8   N/A
WILLOUBY STN VA  1148          220/  8/  8 1025.6R
S CRANEY ISL VA  1148   36     200/  5/  6 1025.4R
CAPE HENRY BUOY  1200      50                N/A     1/11
1ST LANDING BUOY 1200   40 46  240/  6/ 10 1025.8    1
CAPE CHARLES BUO 1151      49                N/A     1/10
64NM E OF VA BCH 1150   51 59  290/  8/ 10 1025.7R   2/ 4   2/10
DUCK PIER NC     1148   40 52  230/  8/ 10 1025.3R
44100 DUCK FRF   1145      54                N/A     1/10
44056 DUCK FRF   1200      54                N/A     1
OREGON INLET NC  1142   41 45  240/  4/  5 1026.1R
HATTERAS NC      1148   45 51  280/  7/  9 1026.0R
DIAMOND SHLS NC  1200   52 71  310/  8/ 12 1026.6
CAPE LOOKOUT NC  1200          330/  5/  6 1027.0R
$$




USA.gov is the U.S. government's official web portal to all federal, state and local government web resources and services.